Location: Marne
(34.0056°N, 117.9064°W)
Time: 21:30:12
(UTC+00:00)

Haruka - Pass Details

Date: 18 January 2020
Orbit: 541 x 21211 km, 31.3° (Epoch: 17 February)

Event Time Altitude Azimuth Distance (km) Brightness Sun altitude
Rises 01:31:40 0° 229° (SW) 3,328 7.9 -5.5°
Reaches altitude 10° 01:34:43 10° 211° (SSW) 1,927 6.0 -6.1°
Maximum altitude 01:37:32 21° 157° (SSE) 1,218 4.1 -6.6°
Drops below altitude 10° 01:40:26 10° 103° (ESE) 1,987 4.7 -7.2°
Enters shadow 01:41:29 - 95° (E) 2,453 5.1 -7.4°
